Fort Lauderdale, FL

4:56 PM EST on December 07, 2019 (GMT -0500)
Fort Lauderdale Executive

Weather History for KFXE - October, 2019

Change the Weather History Date:

Friday, October 11, 2019

  Actual Average Record
Temperature  
Mean Temperature 80 °F -  
Max Temperature 86 °F 87 °F 93 °F (1979)
Min Temperature 73 °F 71 °F 62 °F (1976)
Cooling Degree Days 14    
Growing Degree Days 30 (Base 50)    
Moisture  
Dew Point 72 °F    
Average Humidity 82    
Maximum Humidity 97    
Minimum Humidity 61    
Precipitation  
Precipitation 0.86 in - - ()
Sea Level Pressure  
Sea Level Pressure 29.95 in    
Wind  
Wind Speed 8 mph ()    
Max Wind Speed 15 mph    
Max Gust Speed 22 mph    
Visibility 8.6 miles    
Events Rain , Thunderstorm    
Averages and records for this station are not official NWS values.
T = Trace of Precipitation, MM = Missing Value Source: Averaged Metar Reports

Daily Weather History Graph

Daily Weather History Graph

Search for Another Location

Airport or City:

Astronomy

Oct. 11, 2019 Rise Set
Actual Time 7:17 AM EDT 6:56 PM EDT
Civil Twilight 6:54 AM EDT 7:20 PM EDT
Nautical Twilight 6:27 AM EDT 7:46 PM EDT
Astronomical Twilight 6:00 AM EDT 8:13 PM EDT
Moon 6:07 PM EDT (10/11) 5:17 AM EDT (10/11)
Length of Visible Light 12h 25m
Length of Day
11h 39m
Waxing Gibbous, 96% of the Moon is Illuminated
Oct 11
Waxing Gibbous
Oct 13
Full
Oct 21
Last Quarter
Oct 27
New
Nov 4
First Quarter

Hourly Weather History & Observations

Time (EDT) Temp. Heat Index Dew Point Humidity Pressure Visibility Wind Dir Wind Speed Gust Speed Precip Events Conditions
12:53 AM 79.0 °F - 72.0 °F 79% 29.94 in 10.0 mi ENE 9.2 mph - N/A   Scattered Clouds
1:53 AM 79.0 °F - 72.0 °F 79% 29.93 in 10.0 mi ENE 9.2 mph - N/A   Partly Cloudy
2:53 AM 78.1 °F - 72.0 °F 81% 29.91 in 10.0 mi NE 6.9 mph - 0.00 in   Partly Cloudy
3:53 AM 79.0 °F - 72.0 °F 79% 29.90 in 10.0 mi Variable 6.9 mph - N/A   Mostly Cloudy
4:53 AM 78.1 °F - 71.1 °F 79% 29.90 in 10.0 mi ENE 8.1 mph - N/A   Clear
5:53 AM 78.1 °F - 71.1 °F 79% 29.91 in 10.0 mi NE 5.8 mph - N/A   Partly Cloudy
6:53 AM 78.1 °F - 71.1 °F 79% 29.93 in 10.0 mi ENE 6.9 mph - N/A   Partly Cloudy
7:53 AM 79.0 °F - 71.1 °F 77% 29.94 in 10.0 mi ENE 8.1 mph - N/A   Clear
8:53 AM 82.0 °F 86.7 °F 72.0 °F 71% 29.95 in 10.0 mi ENE 10.4 mph - N/A   Scattered Clouds
9:53 AM 82.0 °F 86.7 °F 72.0 °F 71% 29.97 in 10.0 mi East 11.5 mph - N/A   Scattered Clouds
10:32 AM 82.9 °F 88.0 °F 72.0 °F 69% 29.96 in 10.0 mi ENE 13.8 mph - N/A   Overcast
10:53 AM 84.0 °F 90.2 °F 73.0 °F 69% 29.97 in 10.0 mi East 12.7 mph - N/A   Scattered Clouds
11:53 AM 84.0 °F 89.0 °F 71.1 °F 65% 29.97 in 10.0 mi ENE 12.7 mph - N/A   Scattered Clouds
12:53 PM 86.0 °F 91.5 °F 71.1 °F 61% 29.96 in 10.0 mi East 15.0 mph 21.9 mph N/A   Mostly Cloudy
1:53 PM 82.0 °F 86.7 °F 72.0 °F 71% 29.95 in 7.0 mi NE 10.4 mph 17.3 mph 0.01 in Rain Rain
2:03 PM 77.0 °F - 73.0 °F 88% 29.94 in 5.0 mi ENE 10.4 mph - 0.09 in Rain Rain
2:39 PM 75.0 °F - 73.9 °F 96% 29.94 in 5.0 mi NNE 8.1 mph - 0.28 in Rain , Thunderstorm Rain
2:53 PM 73.9 °F - 73.0 °F 97% 29.94 in 5.0 mi NE 5.8 mph - 0.42 in Rain Rain
3:53 PM 75.9 °F - 73.9 °F 94% 29.95 in 8.0 mi North 4.6 mph - 0.21 in Rain Rain
4:53 PM 75.0 °F - 73.9 °F 96% 29.94 in 5.0 mi NW 5.8 mph - 0.03 in Rain Rain
5:08 PM 75.0 °F - 73.9 °F 96% 29.94 in 4.0 mi NNE 11.5 mph - 0.03 in Rain Rain
5:27 PM 75.0 °F - 73.0 °F 94% 29.94 in 10.0 mi NE 8.1 mph - 0.04 in Rain Rain
5:53 PM 75.0 °F - 73.9 °F 96% 29.95 in 10.0 mi NE 6.9 mph - 0.04 in   Mostly Cloudy
6:53 PM 75.9 °F - 72.0 °F 87% 29.94 in 10.0 mi ENE 13.8 mph 21.9 mph 0.00 in Rain Light Rain
7:00 PM 75.9 °F - 72.0 °F 87% 29.93 in 10.0 mi NE 12.7 mph 21.9 mph 0.00 in Rain Light Rain
7:53 PM 77.0 °F - 71.1 °F 82% 29.96 in 10.0 mi NE 8.1 mph 17.3 mph 0.00 in   Overcast
8:53 PM 77.0 °F - 69.1 °F 76% 29.98 in 10.0 mi ENE 11.5 mph - 0.00 in   Overcast
9:53 PM 78.1 °F - 71.1 °F 79% 29.99 in 10.0 mi ENE 12.7 mph 20.7 mph N/A   Mostly Cloudy
10:53 PM 78.1 °F - 70.0 °F 76% 29.99 in 10.0 mi ENE 9.2 mph - N/A   Overcast
11:41 PM 73.9 °F - 72.0 °F 93% 29.99 in 2.0 mi Variable 6.9 mph - 0.15 in Rain Heavy Rain
11:45 PM 73.9 °F - 72.0 °F 93% 29.99 in 4.0 mi NE 5.8 mph - 0.15 in Rain Light Rain
11:53 PM 75.0 °F - 72.0 °F 90% 30.00 in 10.0 mi NE 9.2 mph - 0.15 in Rain Light Rain